Overview Statistics Trail Chart Weather Telemetry Raw packets
 

This is the latest recevied weather packets stored in our database for station/object K3RUP-1. If no packets are shown the sender has not sent any weather packets the latest 10 day(s).

<< 89 90 91 92 93 94 95 >>
Time Temp. Humidity Pressure Rain* Wind** Luminosity Snow
1788034287 26.11° C 56% 1022.6 hPa 0 mm - 138 W/m² -
1788033987 26.11° C 58% 1022.5 hPa 0 mm - 90 W/m² -
1788033682 25.56° C 58% 1022.6 hPa 0 mm - 77 W/m² -
1788033380 25.56° C 59% 1022.9 hPa 0 mm - 123 W/m² -
1788033076 26.11° C 57% 1022.8 hPa 0 mm - 65 W/m² -
1788032770 26.11° C 60% 1022.9 hPa 0 mm - 93 W/m² -
1788032465 26.11° C 58% 1022.7 hPa 0 mm - 63 W/m² -
1788032161 26.11° C 58% 1023 hPa 0 mm - 64 W/m² -
1788031858 26.11° C 59% 1023 hPa 0 mm - 67 W/m² -
1788031556 26.67° C 56% 1023.1 hPa 0 mm - 95 W/m² -
1788031255 26.67° C 57% 1022.9 hPa 0 mm - 557 W/m² -
1788030955 27.22° C 56% 1022.8 hPa 0 mm - 541 W/m² -
1788030649 26.67° C 57% 1023.2 hPa 0 mm - 573 W/m² -
1788030344 26.67° C 58% 1023.2 hPa 0 mm - 589 W/m² -
1788030039 26.11° C 58% 1023 hPa 0 mm - 613 W/m² -
1788029734 26.11° C 57% 1023.2 hPa 0 mm - 598 W/m² -
1788029429 26.67° C 58% 1023.3 hPa 0 mm - 632 W/m² -
1788029128 26.11° C 60% 1023.2 hPa 0 mm - 654 W/m² -
1788028822 25.56° C 57% 1023.4 hPa 0 mm - 467 W/m² -
1788028516 25.56° C 60% 1023.4 hPa 0 mm - 644 W/m² -
1788028212 25° C 60% 1023.5 hPa 0 mm - 533 W/m² -
1788027908 25° C 59% 1023.2 hPa 0 mm - 360 W/m² -
1788027602 25.56° C 56% 1023.6 hPa 0 mm - 494 W/m² -
1788027302 25.56° C 59% 1023.3 hPa 0 mm - 503 W/m² -
1788026996 25.56° C 59% 1023.4 hPa 0 mm - 474 W/m² -

* Rain latest hour (hover to see other rain measurements)
** Current wind speed in m/s (hover to see current wind gust speed)